Time,TemperatureF,DewpointF,PressureIn,WindDirection,WindDirectionDegrees,WindSpeedMPH,WindSpeedGustMPH,Humidity,HourlyPrecipIn,Conditions,Clouds,dailyrainin,SoftwareType,DateUTC
2013-03-29 00:00:00,48.2,43.6,29.99,ESE,116,3.6,4.9,84,0.00,,CLR,0.00,VWS V14.01,2013-03-29 07:00:00,
2013-03-29 00:05:00,48.2,43.6,29.99,ESE,116,3.6,4.9,84,0.00,,CLR,0.00,VWS V14.01,2013-03-29 07:05:00,
2013-03-29 00:10:00,48.0,43.7,29.99,ESE,116,3.6,4.0,85,0.00,,CLR,0.00,VWS V14.01,2013-03-29 07:10:00,
2013-03-29 00:15:00,47.8,43.2,29.99,ESE,116,3.6,5.4,84,0.00,,CLR,0.00,VWS V14.01,2013-03-29 07:15:00,
2013-03-29 00:20:00,47.8,43.6,29.99,SE,126,4.0,4.5,85,0.00,,CLR,0.00,VWS V14.01,2013-03-29 07:20:00,
2013-03-29 00:25:00,47.8,43.6,29.99,ESE,117,4.5,4.5,85,0.00,,CLR,0.00,VWS V14.01,2013-03-29 07:25:00,
2013-03-29 00:30:00,47.8,43.9,29.99,ESE,117,3.6,4.0,86,0.00,,CLR,0.00,VWS V14.01,2013-03-29 07:30:00,
2013-03-29 00:35:00,47.8,43.6,29.99,ESE,117,3.6,4.0,85,0.00,,CLR,0.00,VWS V14.01,2013-03-29 07:35:00,
2013-03-29 00:40:00,47.8,43.9,29.99,ESE,117,4.0,4.0,86,0.00,,CLR,0.00,VWS V14.01,2013-03-29 07:40:00,
2013-03-29 00:45:00,48.0,44.0,29.99,ESE,117,3.6,4.5,86,0.00,,CLR,0.00,VWS V14.01,2013-03-29 07:45:00,
2013-03-29 00:50:00,48.0,44.0,29.99,ESE,117,4.0,4.0,86,0.00,,CLR,0.00,VWS V14.01,2013-03-29 07:50:00,
2013-03-29 00:55:00,47.8,43.6,29.99,ESE,117,3.1,3.6,85,0.00,,CLR,0.00,VWS V14.01,2013-03-29 07:55:00,
2013-03-29 01:00:00,47.7,43.4,29.99,ESE,117,3.1,4.0,85,0.00,,CLR,0.00,VWS V14.01,2013-03-29 08:00:00,
2013-03-29 01:05:00,47.5,43.2,29.99,ESE,116,3.6,4.0,85,0.00,,CLR,0.00,VWS V14.01,2013-03-29 08:05:00,
2013-03-29 01:10:00,47.3,43.0,29.99,ESE,117,3.6,3.6,85,0.00,,CLR,0.00,VWS V14.01,2013-03-29 08:10:00,
2013-03-29 01:15:00,47.3,43.0,29.99,ESE,117,0.0,4.0,85,0.00,,CLR,0.00,VWS V14.01,2013-03-29 08:15:00,
2013-03-29 01:20:00,47.1,43.2,29.99,ESE,117,3.6,4.5,86,0.00,,CLR,0.00,VWS V14.01,2013-03-29 08:20:00,
2013-03-29 01:25:00,46.9,43.0,29.99,ESE,117,3.6,5.4,86,0.00,,CLR,0.00,VWS V14.01,2013-03-29 08:25:00,
2013-03-29 01:30:00,46.9,43.3,29.99,ESE,117,2.7,3.1,87,0.00,,CLR,0.00,VWS V14.01,2013-03-29 08:30:00,
2013-03-29 01:37:00,46.9,43.3,29.99,ESE,117,3.6,3.6,87,0.00,,CLR,0.00,VWS V14.01,2013-03-29 08:37:00,
2013-03-29 01:42:00,46.9,43.3,29.99,ESE,117,2.7,3.6,87,0.00,,CLR,0.00,VWS V14.01,2013-03-29 08:42:00,
2013-03-29 01:47:00,46.8,43.1,29.99,ESE,117,3.1,4.5,87,0.00,,CLR,0.00,VWS V14.01,2013-03-29 08:47:00,
2013-03-29 01:53:00,46.6,42.9,29.99,ESE,117,3.1,3.6,87,0.00,,CLR,0.00,VWS V14.01,2013-03-29 08:53:00,
2013-03-29 01:58:00,46.4,42.8,29.99,ESE,117,4.5,4.5,87,0.00,,CLR,0.00,VWS V14.01,2013-03-29 08:58:00,
2013-03-29 02:03:00,46.4,42.8,29.99,ESE,117,3.6,4.0,87,0.00,,CLR,0.00,VWS V14.01,2013-03-29 09:03:00,
2013-03-29 02:08:00,46.2,42.6,29.99,ESE,117,3.6,4.9,87,0.00,,CLR,0.00,VWS V14.01,2013-03-29 09:08:00,
2013-03-29 02:13:00,46.2,42.6,29.99,ESE,117,3.6,4.5,87,0.00,,CLR,0.00,VWS V14.01,2013-03-29 09:13:00,
2013-03-29 02:18:00,46.2,42.6,29.99,ESE,117,2.7,3.6,87,0.00,,CLR,0.00,VWS V14.01,2013-03-29 09:18:00,
2013-03-29 02:23:00,46.2,42.9,29.99,ESE,117,0.0,3.1,88,0.00,,CLR,0.00,VWS V14.01,2013-03-29 09:23:00,
2013-03-29 02:28:00,46.2,43.2,29.99,ESE,117,2.7,3.1,89,0.00,,CLR,0.00,VWS V14.01,2013-03-29 09:28:00,
2013-03-29 02:33:00,46.2,43.2,29.99,ESE,117,4.0,4.5,89,0.00,,CLR,0.00,VWS V14.01,2013-03-29 09:33:00,
2013-03-29 02:38:00,46.2,43.2,29.99,ESE,117,3.6,3.6,89,0.00,,CLR,0.00,VWS V14.01,2013-03-29 09:38:00,
2013-03-29 02:44:00,46.4,43.6,29.99,ESE,117,3.6,4.5,90,0.00,,CLR,0.00,VWS V14.01,2013-03-29 09:44:00,
2013-03-29 02:49:00,46.4,43.6,29.99,ESE,117,2.7,3.6,90,0.00,,CLR,0.00,VWS V14.01,2013-03-29 09:49:00,
2013-03-29 02:54:00,46.4,43.6,29.99,ESE,117,3.1,3.6,90,0.00,,CLR,0.00,VWS V14.01,2013-03-29 09:54:00,
2013-03-29 02:59:00,45.7,42.6,29.99,ESE,117,3.1,3.1,89,0.00,,CLR,0.00,VWS V14.01,2013-03-29 09:59:00,
2013-03-29 03:04:00,45.9,42.5,29.99,ESE,117,3.6,4.0,88,0.00,,CLR,0.00,VWS V14.01,2013-03-29 10:04:00,
2013-03-29 03:09:00,45.5,42.2,29.99,ESE,117,3.6,4.0,88,0.00,,CLR,0.00,VWS V14.01,2013-03-29 10:09:00,
2013-03-29 03:14:00,45.7,42.6,29.99,ESE,117,3.1,3.6,89,0.00,,CLR,0.00,VWS V14.01,2013-03-29 10:14:00,
2013-03-29 03:19:00,45.7,42.6,29.99,ESE,117,0.0,3.1,89,0.00,,CLR,0.00,VWS V14.01,2013-03-29 10:19:00,
2013-03-29 03:24:00,46.0,43.3,29.99,ESE,118,3.6,3.6,90,0.00,,CLR,0.00,VWS V14.01,2013-03-29 10:24:00,
2013-03-29 03:29:00,45.7,42.9,29.99,ESE,117,3.6,3.6,90,0.00,,CLR,0.00,VWS V14.01,2013-03-29 10:29:00,
2013-03-29 03:34:00,45.1,41.8,29.99,ESE,117,4.0,4.5,88,0.00,,CLR,0.00,VWS V14.01,2013-03-29 10:34:00,
2013-03-29 03:39:00,45.0,41.6,29.99,ESE,117,3.1,4.0,88,0.00,,CLR,0.00,VWS V14.01,2013-03-29 10:39:00,
2013-03-29 03:44:00,45.1,42.1,29.99,ESE,117,3.6,4.0,89,0.00,,CLR,0.00,VWS V14.01,2013-03-29 10:44:00,
2013-03-29 03:50:00,45.5,43.0,29.99,ESE,117,3.1,3.6,91,0.00,,CLR,0.00,VWS V14.01,2013-03-29 10:50:00,
2013-03-29 03:55:00,44.8,42.0,29.99,ESE,117,4.0,4.0,90,0.00,,CLR,0.00,VWS V14.01,2013-03-29 10:55:00,
2013-03-29 04:00:00,45.1,42.1,29.99,ESE,117,0.0,2.7,89,0.00,,CLR,0.00,VWS V14.01,2013-03-29 11:00:00,
2013-03-29 04:05:00,44.8,42.0,29.99,ESE,117,4.0,4.0,90,0.00,,CLR,0.00,VWS V14.01,2013-03-29 11:05:00,
2013-03-29 04:10:00,45.0,42.5,29.99,ESE,117,0.0,0.0,91,0.00,,CLR,0.00,VWS V14.01,2013-03-29 11:10:00,
2013-03-29 04:15:00,44.2,41.2,29.99,ESE,117,3.1,4.5,89,0.00,,CLR,0.00,VWS V14.01,2013-03-29 11:15:00,
2013-03-29 04:20:00,44.2,41.2,29.99,ESE,117,3.1,3.6,89,0.00,,CLR,0.00,VWS V14.01,2013-03-29 11:20:00,
2013-03-29 04:25:00,44.4,41.7,29.99,ESE,117,3.1,4.5,90,0.00,,CLR,0.00,VWS V14.01,2013-03-29 11:25:00,
2013-03-29 04:30:00,44.4,42.0,29.99,ESE,117,3.6,4.0,91,0.00,,CLR,0.00,VWS V14.01,2013-03-29 11:30:00,
2013-03-29 04:35:00,44.2,41.5,29.99,ESE,117,3.6,3.6,90,0.00,,CLR,0.00,VWS V14.01,2013-03-29 11:35:00,
2013-03-29 04:40:00,44.1,41.3,29.99,ESE,117,0.0,2.7,90,0.00,,CLR,0.00,VWS V14.01,2013-03-29 11:40:00,
2013-03-29 04:45:00,44.4,42.0,29.99,ESE,117,3.1,3.1,91,0.00,,CLR,0.00,VWS V14.01,2013-03-29 11:45:00,
2013-03-29 04:50:00,44.2,41.8,29.99,ESE,117,0.0,0.0,91,0.00,,CLR,0.00,VWS V14.01,2013-03-29 11:50:00,
2013-03-29 04:56:00,44.4,42.0,29.99,ESE,117,0.0,0.0,91,0.00,,CLR,0.00,VWS V14.01,2013-03-29 11:56:00,
2013-03-29 05:01:00,44.2,41.8,29.99,ESE,116,0.0,0.0,91,0.00,,CLR,0.00,VWS V14.01,2013-03-29 12:01:00,
2013-03-29 05:06:00,44.1,41.6,29.99,ESE,117,0.0,0.0,91,0.00,,CLR,0.00,VWS V14.01,2013-03-29 12:06:00,
2013-03-29 05:11:00,44.1,41.6,29.99,ESE,117,0.0,0.0,91,0.00,,CLR,0.00,VWS V14.01,2013-03-29 12:11:00,
2013-03-29 05:16:00,43.7,41.0,29.99,ESE,117,0.0,0.0,90,0.00,,CLR,0.00,VWS V14.01,2013-03-29 12:16:00,
2013-03-29 05:22:00,43.7,41.0,29.99,ESE,117,0.0,0.0,90,0.00,,CLR,0.00,VWS V14.01,2013-03-29 12:22:00,
2013-03-29 05:27:00,43.5,41.1,29.99,ESE,117,0.0,2.7,91,0.00,,CLR,0.00,VWS V14.01,2013-03-29 12:27:00,
2013-03-29 05:32:00,43.5,41.1,29.99,ESE,117,0.0,0.0,91,0.00,,CLR,0.00,VWS V14.01,2013-03-29 12:32:00,
2013-03-29 05:37:00,43.7,41.2,29.99,ESE,117,2.7,2.7,91,0.00,,CLR,0.00,VWS V14.01,2013-03-29 12:37:00,
2013-03-29 05:42:00,43.5,41.1,29.99,ESE,117,0.0,3.6,91,0.00,,CLR,0.00,VWS V14.01,2013-03-29 12:42:00,
2013-03-29 05:47:00,43.5,41.1,29.99,ESE,117,0.0,0.0,91,0.00,,CLR,0.00,VWS V14.01,2013-03-29 12:47:00,
2013-03-29 05:52:00,43.5,41.3,29.99,ESE,117,0.0,0.0,92,0.00,,CLR,0.00,VWS V14.01,2013-03-29 12:52:00,
2013-03-29 05:57:00,43.3,41.2,29.99,ESE,117,0.0,3.6,92,0.00,,CLR,0.00,VWS V14.01,2013-03-29 12:57:00,
2013-03-29 06:03:00,43.2,40.7,29.99,ESE,117,0.0,3.1,91,0.00,,CLR,0.00,VWS V14.01,2013-03-29 13:03:00,
2013-03-29 06:08:00,43.3,40.9,29.99,ESE,117,2.7,4.0,91,0.00,,CLR,0.00,VWS V14.01,2013-03-29 13:08:00,
2013-03-29 06:13:00,43.3,41.2,29.99,ESE,117,2.7,3.6,92,0.00,,CLR,0.00,VWS V14.01,2013-03-29 13:13:00,
2013-03-29 06:18:00,43.3,41.2,29.99,ESE,117,3.1,3.1,92,0.00,,CLR,0.00,VWS V14.01,2013-03-29 13:18:00,
2013-03-29 06:23:00,43.3,41.2,29.99,ESE,117,3.1,3.6,92,0.00,,CLR,0.00,VWS V14.01,2013-03-29 13:23:00,
2013-03-29 06:28:00,43.2,41.0,29.99,ESE,117,0.0,0.0,92,0.00,,CLR,0.00,VWS V14.01,2013-03-29 13:28:00,
2013-03-29 06:33:00,43.2,41.0,29.99,ESE,117,0.0,0.0,92,0.00,,CLR,0.00,VWS V14.01,2013-03-29 13:33:00,
2013-03-29 06:38:00,43.3,41.5,29.99,ESE,117,0.0,0.0,93,0.00,,CLR,0.00,VWS V14.01,2013-03-29 13:38:00,
2013-03-29 06:43:00,43.2,41.3,29.99,ESE,117,3.6,4.0,93,0.00,,CLR,0.00,VWS V14.01,2013-03-29 13:43:00,
2013-03-29 06:48:00,43.0,40.8,29.99,ESE,117,4.0,4.0,92,0.00,,CLR,0.00,VWS V14.01,2013-03-29 13:48:00,
2013-03-29 06:54:00,43.0,40.8,29.99,ESE,117,2.7,3.1,92,0.00,,CLR,0.00,VWS V14.01,2013-03-29 13:54:00,
2013-03-29 06:59:00,43.0,41.1,29.99,ESE,117,4.0,4.0,93,0.00,,CLR,0.00,VWS V14.01,2013-03-29 13:59:00,
2013-03-29 07:04:00,43.0,41.1,29.99,ESE,117,2.7,2.7,93,0.00,,CLR,0.00,VWS V14.01,2013-03-29 14:04:00,
2013-03-29 07:10:00,43.2,41.3,29.99,ESE,117,2.7,3.1,93,0.00,,CLR,0.00,VWS V14.01,2013-03-29 14:10:00,
2013-03-29 07:15:00,43.2,41.3,29.99,ESE,117,3.6,3.6,93,0.00,,CLR,0.00,VWS V14.01,2013-03-29 14:15:00,
2013-03-29 07:20:00,43.3,41.5,29.99,ESE,117,3.6,4.0,93,0.00,,CLR,0.00,VWS V14.01,2013-03-29 14:20:00,
2013-03-29 07:25:00,43.7,41.8,29.99,ESE,117,3.1,4.0,93,0.00,,CLR,0.00,VWS V14.01,2013-03-29 14:25:00,
2013-03-29 07:30:00,44.6,43.0,29.99,ESE,117,2.7,3.6,94,0.00,,CLR,0.00,VWS V14.01,2013-03-29 14:30:00,
2013-03-29 07:35:00,45.7,44.1,29.99,ESE,116,2.7,3.1,94,0.00,,CLR,0.00,VWS V14.01,2013-03-29 14:35:00,
2013-03-29 07:40:00,46.9,45.0,29.99,ESE,117,2.7,3.1,93,0.00,,CLR,0.00,VWS V14.01,2013-03-29 14:40:00,
2013-03-29 07:45:00,47.1,43.2,30.02,ESE,117,2.7,3.6,86,0.00,,CLR,0.00,VWS V14.01,2013-03-29 14:45:00,
2013-03-29 07:50:00,48.2,42.7,30.02,ESE,117,0.0,0.0,81,0.00,,CLR,0.00,VWS V14.01,2013-03-29 14:50:00,
2013-03-29 07:55:00,49.3,43.0,30.02,ESE,117,0.0,0.0,79,0.00,,CLR,0.00,VWS V14.01,2013-03-29 14:55:00,
2013-03-29 08:01:00,50.5,42.9,30.02,ESE,117,0.0,0.0,75,0.00,,CLR,0.00,VWS V14.01,2013-03-29 15:01:00,
2013-03-29 08:06:00,51.3,42.9,30.02,ESE,117,0.0,0.0,73,0.00,,CLR,0.00,VWS V14.01,2013-03-29 15:06:00,
2013-03-29 08:11:00,51.8,42.7,30.02,ESE,118,0.0,0.0,71,0.00,,CLR,0.00,VWS V14.01,2013-03-29 15:11:00,
2013-03-29 08:17:00,52.3,42.5,30.02,ESE,117,0.0,0.0,69,0.00,,CLR,0.00,VWS V14.01,2013-03-29 15:17:00,
2013-03-29 08:22:00,53.1,43.2,30.02,ESE,117,0.0,0.0,69,0.00,,CLR,0.00,VWS V14.01,2013-03-29 15:22:00,
2013-03-29 08:27:00,54.3,44.8,30.02,ESE,117,0.0,0.0,70,0.00,,CLR,0.00,VWS V14.01,2013-03-29 15:27:00,
2013-03-29 08:32:00,55.9,46.3,30.02,ESE,117,0.0,0.0,70,0.00,,CLR,0.00,VWS V14.01,2013-03-29 15:32:00,
2013-03-29 08:37:00,56.8,46.8,30.02,ESE,117,0.0,0.0,69,0.00,,CLR,0.00,VWS V14.01,2013-03-29 15:37:00,
2013-03-29 08:43:00,57.9,47.8,30.02,ESE,117,0.0,0.0,69,0.00,,CLR,0.00,VWS V14.01,2013-03-29 15:43:00,
2013-03-29 08:48:00,58.3,47.0,30.02,ESE,117,0.0,0.0,66,0.00,,CLR,0.00,VWS V14.01,2013-03-29 15:48:00,
2013-03-29 08:53:00,58.5,41.4,30.02,ESE,117,0.0,0.0,53,0.00,,CLR,0.00,VWS V14.01,2013-03-29 15:53:00,
2013-03-29 08:58:00,59.2,42.1,30.02,ESE,117,0.0,0.0,53,0.00,,CLR,0.00,VWS V14.01,2013-03-29 15:58:00,
2013-03-29 09:03:00,60.1,43.4,30.02,ESE,117,0.0,0.0,54,0.00,,CLR,0.00,VWS V14.01,2013-03-29 16:03:00,
2013-03-29 09:09:00,60.8,43.6,30.02,ESE,116,0.0,0.0,53,0.00,,CLR,0.00,VWS V14.01,2013-03-29 16:09:00,
2013-03-29 09:14:00,61.2,40.2,30.02,ESE,117,0.0,0.0,46,0.00,,CLR,0.00,VWS V14.01,2013-03-29 16:14:00,
2013-03-29 09:20:00,61.9,40.3,30.02,ESE,117,0.0,0.0,45,0.00,,CLR,0.00,VWS V14.01,2013-03-29 16:20:00,
2013-03-29 09:25:00,62.8,41.2,30.02,ESE,117,0.0,3.6,45,0.00,,CLR,0.00,VWS V14.01,2013-03-29 16:25:00,
2013-03-29 09:30:00,63.5,40.6,30.02,ESE,116,0.0,0.0,43,0.00,,CLR,0.00,VWS V14.01,2013-03-29 16:30:00,
2013-03-29 09:35:00,64.0,40.5,30.02,East,93,3.1,3.6,42,0.00,,CLR,0.00,VWS V14.01,2013-03-29 16:35:00,
2013-03-29 09:40:00,64.8,39.9,30.02,NE,36,4.9,4.9,40,0.00,,CLR,0.00,VWS V14.01,2013-03-29 16:40:00,
2013-03-29 09:45:00,65.3,39.7,30.02,NNW,333,3.1,4.9,39,0.00,,CLR,0.00,VWS V14.01,2013-03-29 16:45:00,
2013-03-29 09:50:00,65.8,38.2,30.02,NNW,333,4.0,4.5,36,0.00,,CLR,0.00,VWS V14.01,2013-03-29 16:50:00,
2013-03-29 09:55:00,66.2,38.5,30.02,NNW,333,4.0,4.9,36,0.00,,CLR,0.00,VWS V14.01,2013-03-29 16:55:00,
2013-03-29 10:00:00,67.1,39.3,30.02,NNW,333,0.0,0.0,36,0.00,,CLR,0.00,VWS V14.01,2013-03-29 17:00:00,
2013-03-29 10:05:00,67.6,39.0,30.02,West,280,6.3,7.4,35,0.00,,CLR,0.00,VWS V14.01,2013-03-29 17:05:00,
2013-03-29 10:10:00,68.4,38.9,30.02,SW,236,4.5,5.4,34,0.00,,CLR,0.00,VWS V14.01,2013-03-29 17:10:00,
2013-03-29 10:15:00,68.5,39.1,30.02,West,273,6.3,6.3,34,0.00,,CLR,0.00,VWS V14.01,2013-03-29 17:15:00,
2013-03-29 10:20:00,69.1,38.8,30.02,West,276,6.3,6.7,33,0.00,,CLR,0.00,VWS V14.01,2013-03-29 17:20:00,
2013-03-29 10:27:00,69.1,38.8,30.02,WSW,237,4.5,6.3,33,0.00,,CLR,0.00,VWS V14.01,2013-03-29 17:27:00,
2013-03-29 10:33:00,69.1,38.8,30.02,WSW,249,8.3,8.3,33,0.00,,CLR,0.00,VWS V14.01,2013-03-29 17:33:00,
2013-03-29 10:38:00,69.6,39.3,30.02,SW,231,4.9,8.3,33,0.00,,CLR,0.00,VWS V14.01,2013-03-29 17:38:00,
2013-03-29 10:43:00,70.0,39.6,30.02,West,280,4.9,6.3,33,0.00,,CLR,0.00,VWS V14.01,2013-03-29 17:43:00,
2013-03-29 10:48:00,70.3,39.9,30.02,NW,319,7.8,8.3,33,0.00,,CLR,0.00,VWS V14.01,2013-03-29 17:48:00,
2013-03-29 10:53:00,69.8,39.4,30.02,SW,230,5.4,7.4,33,0.00,,CLR,0.00,VWS V14.01,2013-03-29 17:53:00,
2013-03-29 10:58:00,70.2,39.7,30.02,WSW,254,5.4,7.4,33,0.00,,CLR,0.00,VWS V14.01,2013-03-29 17:58:00,
2013-03-29 11:03:00,70.5,40.1,30.02,WSW,245,3.6,8.7,33,0.00,,CLR,0.00,VWS V14.01,2013-03-29 18:03:00,
2013-03-29 11:08:00,70.2,39.0,30.02,WSW,241,5.8,6.9,32,0.00,,CLR,0.00,VWS V14.01,2013-03-29 18:08:00,
2013-03-29 11:13:00,70.9,39.6,30.02,SW,227,3.6,6.3,32,0.00,,CLR,0.00,VWS V14.01,2013-03-29 18:13:00,
2013-03-29 11:18:00,71.4,39.2,30.02,West,267,6.3,6.9,31,0.00,,CLR,0.00,VWS V14.01,2013-03-29 18:18:00,
2013-03-29 11:23:00,72.1,39.9,30.02,West,272,8.7,10.1,31,0.00,,CLR,0.00,VWS V14.01,2013-03-29 18:23:00,
2013-03-29 11:29:00,72.0,39.7,30.02,West,274,5.8,5.8,31,0.00,,CLR,0.00,VWS V14.01,2013-03-29 18:29:00,
2013-03-29 11:34:00,72.3,40.0,30.02,West,277,4.9,6.9,31,0.00,,CLR,0.00,VWS V14.01,2013-03-29 18:34:00,
2013-03-29 11:39:00,72.1,39.9,30.02,WSW,253,5.8,8.7,31,0.00,,CLR,0.00,VWS V14.01,2013-03-29 18:39:00,
2013-03-29 11:45:00,72.0,38.9,30.02,SW,222,4.9,8.3,30,0.00,,CLR,0.00,VWS V14.01,2013-03-29 18:45:00,
2013-03-29 11:50:00,72.7,39.5,30.02,WSW,248,4.5,6.3,30,0.00,,CLR,0.00,VWS V14.01,2013-03-29 18:50:00,
2013-03-29 11:55:00,73.2,40.0,30.02,WNW,287,7.4,8.3,30,0.00,,CLR,0.00,VWS V14.01,2013-03-29 18:55:00,
2013-03-29 12:00:00,73.6,39.4,30.02,SSW,198,0.0,4.0,29,0.00,,CLR,0.00,VWS V14.01,2013-03-29 19:00:00,
2013-03-29 12:05:00,73.9,38.8,30.02,West,272,5.4,6.3,28,0.00,,CLR,0.00,VWS V14.01,2013-03-29 19:05:00,
2013-03-29 12:10:00,73.4,37.4,30.02,WSW,240,6.3,9.6,27,0.00,,CLR,0.00,VWS V14.01,2013-03-29 19:10:00,
2013-03-29 12:15:00,73.2,38.2,30.02,SW,228,9.6,9.6,28,0.00,,CLR,0.00,VWS V14.01,2013-03-29 19:15:00,
2013-03-29 12:20:00,73.0,38.0,30.02,SW,225,7.4,7.8,28,0.00,,CLR,0.00,VWS V14.01,2013-03-29 19:20:00,
2013-03-29 12:25:00,73.9,37.9,30.02,West,259,9.2,9.2,27,0.00,,CLR,0.00,VWS V14.01,2013-03-29 19:25:00,
2013-03-29 12:30:00,74.1,38.0,30.02,WSW,237,6.7,9.2,27,0.00,,CLR,0.00,VWS V14.01,2013-03-29 19:30:00,
2013-03-29 12:36:00,74.7,37.5,30.02,SW,225,6.9,7.8,26,0.00,,CLR,0.00,VWS V14.01,2013-03-29 19:36:00,
2013-03-29 12:42:00,75.0,36.8,30.02,WNW,283,4.5,7.8,25,0.00,,CLR,0.00,VWS V14.01,2013-03-29 19:42:00,
2013-03-29 12:47:00,74.8,36.7,29.99,WSW,256,7.8,11.0,25,0.00,,CLR,0.00,VWS V14.01,2013-03-29 19:47:00,
2013-03-29 12:52:00,75.0,36.8,29.99,West,274,6.9,10.1,25,0.00,,CLR,0.00,VWS V14.01,2013-03-29 19:52:00,
2013-03-29 12:57:00,74.3,36.2,29.99,SW,219,5.4,7.4,25,0.00,,CLR,0.00,VWS V14.01,2013-03-29 19:57:00,
2013-03-29 13:02:00,75.0,36.8,29.99,WSW,241,3.6,9.2,25,0.00,,CLR,0.00,VWS V14.01,2013-03-29 20:02:00,
2013-03-29 13:07:00,75.4,36.1,29.99,SW,235,6.7,8.3,24,0.00,,CLR,0.00,VWS V14.01,2013-03-29 20:07:00,
2013-03-29 13:12:00,75.2,36.0,29.99,WNW,297,0.0,6.3,24,0.00,,CLR,0.00,VWS V14.01,2013-03-29 20:12:00,
2013-03-29 13:17:00,75.7,35.3,29.99,WNW,283,4.9,6.9,23,0.00,,CLR,0.00,VWS V14.01,2013-03-29 20:17:00,
2013-03-29 13:22:00,75.4,35.0,29.99,SW,231,6.3,6.3,23,0.00,,CLR,0.00,VWS V14.01,2013-03-29 20:22:00,
2013-03-29 13:28:00,75.7,35.3,29.99,WSW,252,5.8,9.2,23,0.00,,CLR,0.00,VWS V14.01,2013-03-29 20:28:00,
2013-03-29 13:33:00,75.9,34.4,29.99,SW,222,7.4,8.7,22,0.00,,CLR,0.00,VWS V14.01,2013-03-29 20:33:00,
2013-03-29 13:38:00,76.5,34.8,29.99,WSW,256,4.5,9.6,22,0.00,,CLR,0.00,VWS V14.01,2013-03-29 20:38:00,
2013-03-29 13:44:00,76.6,35.0,29.99,WSW,246,9.6,9.6,22,0.00,,CLR,0.00,VWS V14.01,2013-03-29 20:44:00,
2013-03-29 13:49:00,76.6,35.0,29.99,West,279,6.7,7.8,22,0.00,,CLR,0.00,VWS V14.01,2013-03-29 20:49:00,
2013-03-29 13:54:00,77.0,35.3,29.99,WSW,243,5.8,7.8,22,0.00,,CLR,0.00,VWS V14.01,2013-03-29 20:54:00,
2013-03-29 13:59:00,77.0,35.3,29.99,WNW,296,5.8,7.8,22,0.00,,CLR,0.00,VWS V14.01,2013-03-29 20:59:00,
2013-03-29 14:04:00,77.2,34.3,29.99,NNW,330,0.0,4.9,21,0.00,,CLR,0.00,VWS V14.01,2013-03-29 21:04:00,
2013-03-29 14:09:00,77.4,34.4,29.99,SW,228,4.5,6.3,21,0.00,,CLR,0.00,VWS V14.01,2013-03-29 21:09:00,
2013-03-29 14:14:00,77.5,34.6,29.99,WSW,250,4.0,7.4,21,0.00,,CLR,0.00,VWS V14.01,2013-03-29 21:14:00,
2013-03-29 14:19:00,78.1,35.0,29.99,WNW,282,8.3,8.3,21,0.00,,CLR,0.00,VWS V14.01,2013-03-29 21:19:00,
2013-03-29 14:25:00,78.3,35.2,29.99,West,274,9.2,10.5,21,0.00,,CLR,0.00,VWS V14.01,2013-03-29 21:25:00,
2013-03-29 14:30:00,77.2,34.3,29.99,WSW,239,3.6,8.3,21,0.00,,CLR,0.00,VWS V14.01,2013-03-29 21:30:00,
2013-03-29 14:35:00,77.9,34.9,29.99,WSW,248,6.9,8.7,21,0.00,,CLR,0.00,VWS V14.01,2013-03-29 21:35:00,
2013-03-29 14:40:00,77.4,34.4,29.99,SW,228,6.9,7.8,21,0.00,,CLR,0.00,VWS V14.01,2013-03-29 21:40:00,
2013-03-29 14:45:00,77.7,34.7,29.99,West,272,6.3,8.3,21,0.00,,CLR,0.00,VWS V14.01,2013-03-29 21:45:00,
2013-03-29 14:50:00,77.9,33.6,29.96,West,272,6.7,6.7,20,0.00,,CLR,0.00,VWS V14.01,2013-03-29 21:50:00,
2013-03-29 14:55:00,78.3,35.2,29.96,WNW,295,5.8,8.7,21,0.00,,CLR,0.00,VWS V14.01,2013-03-29 21:55:00,
2013-03-29 15:00:00,77.9,34.9,29.96,West,268,6.9,10.5,21,0.00,,CLR,0.00,VWS V14.01,2013-03-29 22:00:00,
2013-03-29 15:05:00,77.7,34.7,29.96,West,279,9.6,10.5,21,0.00,,CLR,0.00,VWS V14.01,2013-03-29 22:05:00,
2013-03-29 15:10:00,77.9,34.9,29.96,WSW,251,4.9,6.7,21,0.00,,CLR,0.00,VWS V14.01,2013-03-29 22:10:00,
2013-03-29 15:15:00,77.9,33.6,29.96,WNW,300,5.4,8.7,20,0.00,,CLR,0.00,VWS V14.01,2013-03-29 22:15:00,
2013-03-29 15:20:00,77.7,34.7,29.96,NE,44,4.9,5.4,21,0.00,,CLR,0.00,VWS V14.01,2013-03-29 22:20:00,
2013-03-29 15:25:00,77.7,34.7,29.96,WSW,238,5.8,8.3,21,0.00,,CLR,0.00,VWS V14.01,2013-03-29 22:25:00,
2013-03-29 15:30:00,77.7,33.5,29.96,WNW,296,0.0,0.0,20,0.00,,CLR,0.00,VWS V14.01,2013-03-29 22:30:00,
2013-03-29 15:37:00,77.7,34.7,29.96,WNW,283,5.4,9.6,21,0.00,,CLR,0.00,VWS V14.01,2013-03-29 22:37:00,
2013-03-29 15:42:00,77.5,33.3,29.96,NNW,329,4.9,8.3,20,0.00,,CLR,0.00,VWS V14.01,2013-03-29 22:42:00,
2013-03-29 15:48:00,77.7,33.5,29.96,WNW,284,8.3,10.5,20,0.00,,CLR,0.00,VWS V14.01,2013-03-29 22:48:00,
2013-03-29 15:54:00,76.8,32.8,29.96,North,351,0.0,6.9,20,0.00,,CLR,0.00,VWS V14.01,2013-03-29 22:54:00,
2013-03-29 15:59:00,77.2,33.0,29.96,SW,216,3.1,7.8,20,0.00,,CLR,0.00,VWS V14.01,2013-03-29 22:59:00,
2013-03-29 16:04:00,77.9,33.6,29.96,SW,228,5.8,7.4,20,0.00,,CLR,0.00,VWS V14.01,2013-03-29 23:04:00,
2013-03-29 16:09:00,78.4,34.1,29.96,NW,325,0.0,7.4,20,0.00,,CLR,0.00,VWS V14.01,2013-03-29 23:09:00,
2013-03-29 16:14:00,77.9,33.6,29.96,WNW,289,9.6,11.2,20,0.00,,CLR,0.00,VWS V14.01,2013-03-29 23:14:00,
2013-03-29 16:19:00,77.4,33.2,29.96,West,263,6.3,8.7,20,0.00,,CLR,0.00,VWS V14.01,2013-03-29 23:19:00,
2013-03-29 16:24:00,77.9,33.6,29.96,NW,316,6.3,7.8,20,0.00,,CLR,0.00,VWS V14.01,2013-03-29 23:24:00,
2013-03-29 16:30:00,77.5,33.3,29.96,SW,219,7.4,10.1,20,0.00,,CLR,0.00,VWS V14.01,2013-03-29 23:30:00,
2013-03-29 16:35:00,77.5,33.3,29.93,WSW,250,8.3,8.3,20,0.00,,CLR,0.00,VWS V14.01,2013-03-29 23:35:00,
2013-03-29 16:41:00,77.5,33.3,29.93,WSW,253,5.4,7.4,20,0.00,,CLR,0.00,VWS V14.01,2013-03-29 23:41:00,
2013-03-29 16:46:00,77.9,33.6,29.93,WSW,247,4.9,7.8,20,0.00,,CLR,0.00,VWS V14.01,2013-03-29 23:46:00,
2013-03-29 16:51:00,77.5,33.3,29.93,SW,235,4.5,6.7,20,0.00,,CLR,0.00,VWS V14.01,2013-03-29 23:51:00,
2013-03-29 16:56:00,77.7,33.5,29.93,WSW,247,0.0,3.6,20,0.00,,CLR,0.00,VWS V14.01,2013-03-29 23:56:00,
2013-03-29 17:01:00,77.9,33.6,29.93,WNW,302,4.9,7.8,20,0.00,,CLR,0.00,VWS V14.01,2013-03-30 00:01:00,
2013-03-29 17:06:00,77.9,33.6,29.93,NW,305,9.6,9.6,20,0.00,,CLR,0.00,VWS V14.01,2013-03-30 00:06:00,
2013-03-29 17:12:00,76.8,32.8,29.93,WNW,289,5.4,9.2,20,0.00,,CLR,0.00,VWS V14.01,2013-03-30 00:12:00,
2013-03-29 17:17:00,76.6,32.6,29.93,WSW,250,7.4,8.7,20,0.00,,CLR,0.00,VWS V14.01,2013-03-30 00:17:00,
2013-03-29 17:22:00,76.3,32.3,29.93,WNW,284,9.6,10.5,20,0.00,,CLR,0.00,VWS V14.01,2013-03-30 00:22:00,
2013-03-29 17:27:00,76.3,32.3,29.93,West,277,6.3,6.3,20,0.00,,CLR,0.00,VWS V14.01,2013-03-30 00:27:00,
2013-03-29 17:32:00,76.3,32.3,29.93,NW,312,9.2,11.0,20,0.00,,CLR,0.00,VWS V14.01,2013-03-30 00:32:00,
2013-03-29 17:37:00,75.7,33.1,29.93,NNW,330,5.4,8.7,21,0.00,,CLR,0.00,VWS V14.01,2013-03-30 00:37:00,
2013-03-29 17:43:00,75.6,32.9,29.93,NNW,330,9.2,9.2,21,0.00,,CLR,0.00,VWS V14.01,2013-03-30 00:43:00,
2013-03-29 17:49:00,75.2,32.6,29.93,WNW,286,5.8,7.4,21,0.00,,CLR,0.00,VWS V14.01,2013-03-30 00:49:00,
2013-03-29 17:54:00,74.5,32.0,29.93,NW,306,5.4,8.7,21,0.00,,CLR,0.00,VWS V14.01,2013-03-30 00:54:00,
2013-03-29 17:59:00,74.3,33.0,29.93,WNW,283,8.7,9.2,22,0.00,,SCT085,0.00,VWS V14.01,2013-03-30 00:59:00,
2013-03-29 18:04:00,73.9,32.7,29.93,West,278,5.8,7.4,22,0.00,,SCT085,0.00,VWS V14.01,2013-03-30 01:04:00,
2013-03-29 18:09:00,73.9,32.7,29.93,West,278,6.7,8.7,22,0.00,,SCT085,0.00,VWS V14.01,2013-03-30 01:09:00,
2013-03-29 18:14:00,73.8,32.6,29.93,West,268,5.4,7.4,22,0.00,,SCT085,0.00,VWS V14.01,2013-03-30 01:14:00,
2013-03-29 18:19:00,73.8,32.6,29.93,West,274,3.6,6.9,22,0.00,,SCT085,0.00,VWS V14.01,2013-03-30 01:19:00,
2013-03-29 18:24:00,73.8,32.6,29.93,WNW,297,5.4,7.4,22,0.00,,SCT085,0.00,VWS V14.01,2013-03-30 01:24:00,
2013-03-29 18:29:00,73.6,33.5,29.93,West,276,9.2,9.2,23,0.00,,SCT085,0.00,VWS V14.01,2013-03-30 01:29:00,
2013-03-29 18:34:00,73.2,33.2,29.93,WNW,300,5.8,9.2,23,0.00,,SCT085,0.00,VWS V14.01,2013-03-30 01:34:00,
2013-03-29 18:40:00,72.7,32.8,29.93,NW,307,4.5,6.3,23,0.00,,SCT085,0.00,VWS V14.01,2013-03-30 01:40:00,
2013-03-29 18:45:00,72.5,33.7,29.93,NW,310,5.8,5.8,24,0.00,,SCT085,0.00,VWS V14.01,2013-03-30 01:45:00,
2013-03-29 18:51:00,72.0,33.2,29.93,WNW,300,3.6,6.3,24,0.00,,SCT085,0.00,VWS V14.01,2013-03-30 01:51:00,
2013-03-29 18:56:00,71.6,32.9,29.93,WNW,299,4.0,4.9,24,0.00,,SCT085,0.00,VWS V14.01,2013-03-30 01:56:00,
2013-03-29 19:01:00,71.2,34.6,29.93,WNW,299,3.6,4.0,26,0.00,,SCT085,0.00,VWS V14.01,2013-03-30 02:01:00,
2013-03-29 19:06:00,70.9,34.3,29.93,NW,319,5.8,5.8,26,0.00,,SCT085,0.00,VWS V14.01,2013-03-30 02:06:00,
2013-03-29 19:11:00,70.3,34.8,29.93,NNW,343,6.3,6.3,27,0.00,,SCT085,0.00,VWS V14.01,2013-03-30 02:11:00,
2013-03-29 19:16:00,70.0,34.5,29.93,NNW,336,4.5,4.9,27,0.00,,SCT085,0.00,VWS V14.01,2013-03-30 02:16:00,
2013-03-29 19:20:00,69.6,36.0,29.93,NNW,337,3.1,3.6,29,0.00,,SCT085,0.00,VWS V14.01,2013-03-30 02:20:00,
2013-03-29 19:25:00,68.4,37.4,29.93,North,351,0.0,5.4,32,0.00,,SCT085,0.00,VWS V14.01,2013-03-30 02:25:00,
2013-03-29 19:30:00,67.6,37.5,29.93,North,351,3.1,3.6,33,0.00,,SCT085,0.00,VWS V14.01,2013-03-30 02:30:00,
2013-03-29 19:35:00,67.1,38.6,29.93,NNW,347,0.0,0.0,35,0.00,,SCT085,0.00,VWS V14.01,2013-03-30 02:35:00,
2013-03-29 19:40:00,66.2,39.2,29.93,North,351,2.7,2.7,37,0.00,,SCT085,0.00,VWS V14.01,2013-03-30 02:40:00,
2013-03-29 19:45:00,65.5,39.9,29.93,NNW,347,0.0,0.0,39,0.00,,SCT085,0.00,VWS V14.01,2013-03-30 02:45:00,
2013-03-29 19:50:00,64.8,40.5,29.93,North,351,0.0,0.0,41,0.00,,SCT085,0.00,VWS V14.01,2013-03-30 02:50:00,
2013-03-29 19:55:00,64.2,41.3,29.93,NNW,347,0.0,0.0,43,0.00,,SCT085,0.00,VWS V14.01,2013-03-30 02:55:00,
2013-03-29 20:00:00,63.7,40.8,29.93,North,351,0.0,0.0,43,0.00,,SCT085,0.00,VWS V14.01,2013-03-30 03:00:00,
2013-03-29 20:06:00,63.3,41.1,29.93,ENE,59,4.0,5.4,44,0.00,,SCT085,0.00,VWS V14.01,2013-03-30 03:06:00,
2013-03-29 20:12:00,63.1,40.9,29.93,ENE,59,3.6,4.5,44,0.00,,SCT085,0.00,VWS V14.01,2013-03-30 03:12:00,
2013-03-29 20:17:00,62.6,41.0,29.93,ENE,59,3.6,4.0,45,0.00,,SCT085,0.00,VWS V14.01,2013-03-30 03:17:00,
2013-03-29 20:22:00,62.2,40.7,29.93,ENE,59,3.6,4.5,45,0.00,,SCT085,0.00,VWS V14.01,2013-03-30 03:22:00,
2013-03-29 20:28:00,61.9,40.9,29.93,ENE,59,4.0,4.5,46,0.00,,SCT085,0.00,VWS V14.01,2013-03-30 03:28:00,
2013-03-29 20:33:00,61.3,41.0,29.96,ENE,59,4.5,4.5,47,0.00,,SCT085,0.00,VWS V14.01,2013-03-30 03:33:00,
2013-03-29 20:38:00,61.2,41.3,29.96,ENE,59,3.1,4.5,48,0.00,,SCT085,0.00,VWS V14.01,2013-03-30 03:38:00,
2013-03-29 20:43:00,60.8,41.0,29.96,ENE,59,2.7,3.6,48,0.00,,SCT085,0.00,VWS V14.01,2013-03-30 03:43:00,
2013-03-29 20:48:00,60.4,41.2,29.96,ENE,59,4.5,4.9,49,0.00,,SCT085,0.00,VWS V14.01,2013-03-30 03:48:00,
2013-03-29 20:53:00,60.1,41.4,29.96,ENE,59,4.9,5.4,50,0.00,,SCT085,0.00,VWS V14.01,2013-03-30 03:53:00,
2013-03-29 20:59:00,59.4,41.2,29.96,ENE,59,5.4,5.4,51,0.00,,CLR,0.00,VWS V14.01,2013-03-30 03:59:00,
2013-03-29 21:00:00,59.4,41.2,29.96,ENE,59,4.5,5.4,51,0.00,,CLR,0.00,VWS V14.01,2013-03-30 04:00:00,
2013-03-29 21:01:00,59.4,41.2,29.96,ENE,59,4.5,5.4,51,0.00,,CLR,0.00,VWS V14.01,2013-03-30 04:01:00,
2013-03-29 21:02:00,59.4,41.8,29.96,ENE,59,4.5,4.9,52,0.00,,CLR,0.00,VWS V14.01,2013-03-30 04:02:00,
2013-03-29 21:07:00,59.0,41.4,29.96,ESE,114,5.4,5.4,52,0.00,,CLR,0.00,VWS V14.01,2013-03-30 04:07:00,
2013-03-29 21:12:00,59.0,41.9,29.96,SE,134,3.6,4.5,53,0.00,,CLR,0.00,VWS V14.01,2013-03-30 04:12:00,
2013-03-29 21:17:00,58.6,41.6,29.96,SE,127,4.0,5.4,53,0.00,,CLR,0.00,VWS V14.01,2013-03-30 04:17:00,
2013-03-29 21:22:00,58.5,41.4,29.96,SE,125,4.9,5.4,53,0.00,,CLR,0.00,VWS V14.01,2013-03-30 04:22:00,
2013-03-29 21:27:00,58.5,41.4,29.96,ESE,104,4.9,5.4,53,0.00,,CLR,0.00,VWS V14.01,2013-03-30 04:27:00,
2013-03-29 21:32:00,58.6,41.6,29.96,ESE,105,4.5,4.5,53,0.00,,CLR,0.00,VWS V14.01,2013-03-30 04:32:00,
2013-03-29 21:37:00,58.6,41.6,29.96,SE,125,5.4,6.3,53,0.00,,CLR,0.00,VWS V14.01,2013-03-30 04:37:00,
2013-03-29 21:42:00,58.5,41.4,29.96,ESE,106,4.5,4.9,53,0.00,,CLR,0.00,VWS V14.01,2013-03-30 04:42:00,
2013-03-29 21:47:00,58.5,41.4,29.96,ESE,106,4.5,4.9,53,0.00,,CLR,0.00,VWS V14.01,2013-03-30 04:47:00,
2013-03-29 21:52:00,58.3,41.2,29.96,ESE,109,4.0,5.8,53,0.00,,CLR,0.00,VWS V14.01,2013-03-30 04:52:00,
2013-03-29 21:57:00,58.3,41.7,29.96,ESE,113,4.5,5.8,54,0.00,,CLR,0.00,VWS V14.01,2013-03-30 04:57:00,
2013-03-29 22:02:00,58.1,41.6,29.96,ESE,113,4.5,5.4,54,0.00,,CLR,0.00,VWS V14.01,2013-03-30 05:02:00,
2013-03-29 22:06:00,57.9,41.9,29.96,ESE,112,4.0,4.9,55,0.00,,CLR,0.00,VWS V14.01,2013-03-30 05:06:00,
2013-03-29 22:11:00,57.9,41.9,29.96,ESE,112,5.4,5.8,55,0.00,,CLR,0.00,VWS V14.01,2013-03-30 05:11:00,
2013-03-29 22:16:00,58.3,41.7,29.96,ESE,114,4.9,5.4,54,0.00,,CLR,0.00,VWS V14.01,2013-03-30 05:16:00,
2013-03-29 22:22:00,58.5,41.4,29.96,ESE,115,4.0,5.8,53,0.00,,CLR,0.00,VWS V14.01,2013-03-30 05:22:00,
2013-03-29 22:27:00,58.1,41.6,29.96,ESE,115,4.5,4.9,54,0.00,,CLR,0.00,VWS V14.01,2013-03-30 05:27:00,
2013-03-29 22:32:00,57.9,41.4,29.96,ESE,115,2.7,3.6,54,0.00,,CLR,0.00,VWS V14.01,2013-03-30 05:32:00,
2013-03-29 22:37:00,57.9,41.4,29.96,ESE,115,4.0,4.5,54,0.00,,CLR,0.00,VWS V14.01,2013-03-30 05:37:00,
2013-03-29 22:42:00,57.6,41.5,29.96,ESE,115,3.1,3.6,55,0.00,,CLR,0.00,VWS V14.01,2013-03-30 05:42:00,
2013-03-29 22:47:00,57.7,41.7,29.96,ESE,115,4.0,4.0,55,0.00,,CLR,0.00,VWS V14.01,2013-03-30 05:47:00,
2013-03-29 22:52:00,57.2,41.2,29.96,ESE,115,3.6,3.6,55,0.00,,CLR,0.00,VWS V14.01,2013-03-30 05:52:00,
2013-03-29 22:57:00,56.7,41.6,29.96,ESE,115,2.7,3.1,57,0.00,,CLR,0.00,VWS V14.01,2013-03-30 05:57:00,
2013-03-29 23:02:00,56.3,41.7,29.96,ESE,115,0.0,0.0,58,0.00,,CLR,0.00,VWS V14.01,2013-03-30 06:02:00,
2013-03-29 23:07:00,56.3,42.2,29.96,ESE,115,3.6,3.6,59,0.00,,CLR,0.00,VWS V14.01,2013-03-30 06:07:00,
2013-03-29 23:13:00,55.8,42.1,29.96,ESE,115,0.0,3.6,60,0.00,,CLR,0.00,VWS V14.01,2013-03-30 06:13:00,
2013-03-29 23:18:00,55.8,42.1,29.96,ESE,115,3.1,3.1,60,0.00,,CLR,0.00,VWS V14.01,2013-03-30 06:18:00,
2013-03-29 23:23:00,55.4,41.8,29.96,ESE,115,3.6,3.6,60,0.00,,CLR,0.00,VWS V14.01,2013-03-30 06:23:00,
2013-03-29 23:28:00,54.7,41.9,29.96,ESE,115,3.6,4.5,62,0.00,,CLR,0.00,VWS V14.01,2013-03-30 06:28:00,
2013-03-29 23:33:00,54.5,42.2,29.96,ESE,107,4.0,4.5,63,0.00,,CLR,0.00,VWS V14.01,2013-03-30 06:33:00,
2013-03-29 23:38:00,54.3,42.4,29.96,ESE,107,4.5,4.5,64,0.00,,CLR,0.00,VWS V14.01,2013-03-30 06:38:00,
2013-03-29 23:43:00,54.1,42.2,29.96,ESE,108,4.9,4.9,64,0.00,,CLR,0.00,VWS V14.01,2013-03-30 06:43:00,
2013-03-29 23:48:00,54.0,42.5,29.96,ESE,107,4.0,4.5,65,0.00,,CLR,0.00,VWS V14.01,2013-03-30 06:48:00,
2013-03-29 23:53:00,53.8,42.3,29.96,ESE,109,3.1,3.6,65,0.00,,CLR,0.00,VWS V14.01,2013-03-30 06:53:00,
2013-03-29 23:58:00,53.2,41.8,29.96,ESE,108,4.0,4.5,65,0.00,,CLR,0.00,VWS V14.01,2013-03-30 06:58:00,